This demonstration page uses our WeatherBlox Daily Observations layout. Learn more.

Left ArrowRight Arrow

40.97296, -117.73568

Hourly Observations for August 15, 2022

Temp ( °F °C ) Dew Point ( °F °C ) Humidity (%) Winds ( mph kmh ) Pressure ( in mb ) Visibility ( mi km ) Precip ( " mm )
12:56 am 00:56 Clear 61 16.1 26 -3.3 26 26 VRB 5 7 29.91 1013 10 16 0.00 0.00
1:56 am 01:56 Clear 56 13.3 25 -3.9 30 30 Calm 29.90 1013 10 16 0.00 0.00
2:56 am 02:56 Clear 51 10.6 29 -1.7 42 42 SSE 7 11 29.91 1013 10 16 0.00 0.00
3:56 am 03:56 Clear 50 10 27 -2.8 40 40 SSE 3 6 29.92 1013 10 16 0.00 0.00
4:56 am 04:56 Clear 49 9.4 28 -2.2 44 44 SE 7 11 29.92 1013 10 16 0.00 0.00
5:56 am 05:56 Clear 49 9.4 28 -2.2 44 44 Calm 29.94 1014 10 16 0.00 0.00
6:56 am 06:56 Sunny 55 12.8 28 -2.2 35 35 ESE 5 7 29.95 1014 10 16 0.00 0.00
7:56 am 07:56 Sunny 66 18.9 29 -1.7 25 25 Calm 29.95 1014 10 16 0.00 0.00
8:56 am 08:56 Sunny 75 23.9 38 3.3 26 26 ENE 5 7 29.95 1014 10 16 0.00 0.00
9:56 am 09:56 Sunny 82 27.8 39 3.9 22 22 E 6 9 29.94 1014 10 16 0.00 0.00
10:56 am 10:56 Sunny 86 30 37 2.8 18 18 NNE 3 6 29.93 1014 10 16 0.00 0.00
11:56 am 11:56 Sunny 91 32.8 35 1.7 14 14 Calm 29.92 1013 10 16 0.00 0.00
12:56 pm 12:56 Sunny 94 34.4 34 1.1 12 12 VRB 5 7 29.89 1012 10 16 0.00 0.00
1:56 pm 13:56 Sunny 97 36.1 32 0 10 10 VRB 3 6 29.87 1011 10 16 0.00 0.00
2:56 pm 14:56 Sunny 98 36.7 32 0 10 10 VRB 3 6 29.85 1011 10 16 0.00 0.00
3:56 pm 15:56 Sunny 98 36.7 30 -1.1 9 9 undefined N/A 29.84 1010 10 16 0.00 0.00
4:56 pm 16:56 Sunny 99 37.2 33 0.6 10 10 VRB 3 6 29.83 1010 10 16 0.00 0.00
5:56 pm 17:56 Sunny 98 36.7 33 0.6 10 10 S 9 15 29.82 1010 10 16 0.00 0.00
6:56 pm 18:56 Sunny 96 35.6 33 0.6 11 11 Calm 29.81 1009 10 16 0.00 0.00
7:56 pm 19:56 Clear 89 31.7 34 1.1 14 14 NNW 6 9 29.81 1010 10 16 0.00 0.00
8:56 pm 20:56 Clear 79 26.1 35 1.7 20 20 NW 7 11 29.83 1010 10 16 0.00 0.00
9:56 pm 21:56 Clear 74 23.3 33 0.6 22 22 W 8 13 29.84 1011 10 16 0.00 0.00
10:56 pm 22:56 Clear 73 22.8 33 0.6 23 23 Calm 29.84 1010 10 16 0.00 0.00
11:56 pm 23:56 Clear 73 22.8 34 1.1 24 24 NNE 8 13 29.84 1011 10 16 0.00 0.00

Powered by AerisWeather